CAPE
0 0 0 0 0 0 0 0 0 0 0 0 0 0 0 0 0 0 1 0 0 0 1 2 36 158 152 144 134 114 58 56 19 9 17 1 0 0 0 0 0 0 0
0 0 0 0 0 0 0 0 0 0 0 0 0 0 0 0 0 1 1 1 1 0 2 3 3 1 1 113 147 158 82 80 103 29 1 0 0 0 0 0 0 0 0
0 0 0 0 0 0 0 0 0 0 0 0 0 0 0 0 0 0 1 0 0 0 1 2 1 1 2 2 5 118 131 97 127 61 22 0 0 0 0 0 0 1 2
0 0 0 0 0 0 0 0 0 0 0 0 0 0 0 0 0 0 0 1 1 0 0 0 0 0 0 1 3 5 4 4 59 63 26 15 0 0 0 0 0 0 0
0 0 0 0 0 0 0 0 0 0 0 0 0 0 0 0 0 0 2 2 2 0 2 0 0 0 0 0 1 2 4 5 4 4 2 0 0 0 0 0 0 1 1
0 0 0 0 0 0 0 0 0 0 0 0 0 0 0 0 0 1 0 0 0 0 3 2 0 0 0 0 0 0 1 3 5 3 2 1 0 0 0 0 0 0 0
0 0 0 0 0 0 0 0 0 0 0 0 0 0 0 0 1 1 0 0 0 0 0 3 3 4 0 0 0 0 0 0 1 2 2 1 0 0 0 0 0 0 0
0 0 0 0 0 0 0 0 0 0 0 0 0 0 0 0 0 1 2 1 0 0 0 0 1 1 1 0 0 1 1 1 0 0 0 0 0 0 0 0 0 1 3
0 0 0 0 0 0 0 0 0 1 0 0 0 0 0 0 0 0 1 0 0 0 0 0 1 1 1 1 1 1 1 1 0 0 0 1 0 0 1 0 0 0 0
0 0 0 0 0 0 0 0 0 0 0 0 0 0 0 0 0 0 0 0 1 0 0 0 0 3 1 1 1 2 1 2 1 0 0 0 2 1 2 1 0 0 1
0 0 0 0 0 0 0 0 0 0 0 0 0 0 0 0 0 0 1 0 1 1 3 2 0 3 5 4 3 1 2 2 2 2 0 0 0 0 0 2 0 1 0
0 0 0 0 0 0 0 0 0 0 0 0 0 0 0 0 0 0 1 0 0 0 1 1 1 1 1 1 1 1 2 2 0 0 0 0 0 0 1 2 0 0 0
0 0 0 0 0 0 0 0 0 0 0 0 0 0 0 0 0 0 0 0 0 0 1 0 2 3 2 1 1 2 2 0 0 0 0 0 0 1 0 0 0 0 0
0 0 0 0 0 0 0 0 0 0 0 0 0 0 0 0 0 1 1 1 1 0 0 0 0 1 2 1 1 1 2 1 1 0 0 0 0 0 0 1 1 1 0
0 0 0 0 0 0 0 0 0 0 0 0 0 0 0 0 0 2 2 0 0 0 0 0 0 0 0 0 0 0 1 1 0 1 0 0 0 0 0 0 0 0 0
0 0 0 0 0 0 0 0 0 0 0 0 1 1 0 2 2 2 1 0 0 0 0 0 0 0 0 0 0 0 0 0 1 0 0 0 0 0 0 0 0 0 0
0 0 0 0 0 0 0 0 0 0 0 0 0 0 0 1 1 0 0 0 0 0 0 0 0 0 0 0 0 0 0 0 0 0 0 0 0 0 0 0 0 0 0
0 0 0 0 0 0 0 0 0 0 0 0 0 0 0 0 0 0 0 0 0 0 0 0 0 0 0 0 0 0 0 0 0 0 0 0 0 0 0 0 0 0 0
0 0 0 0 0 0 0 0 0 0 0 0 0 0 0 0 0 0 0 0 0 0 0 0 0 0 0 0 0 0 0 0 0 0 0 0 0 0 0 0 0 0 0
0 0 0 0 0 0 0 0 0 0 0 0 0 0 0 0 0 0 0 0 0 0 0 0 0 0 0 0 0 0 0 0 0 0 0 0 0 0 0 0 0 0 0
0 0 0 0 0 0 0 0 0 0 0 0 0 0 0 0 0 0 0 0 0 0 0 0 0 0 0 0 0 0 0 0 0 0 0 0 0 0 0 0 0 0 0
0 0 0 0 0 0 0 0 0 0 0 0 0 0 0 0 0 0 0 0 0 0 0 0 0 0 0 0 0 0 0 0 0 0 0 0 0 0 0 0 0 0 0
0 0 0 0 0 0 0 0 0 0 0 0 0 0 0 0 0 0 0 0 0 0 0 0 0 0 0 0 0 0 0 0 0 0 0 0 0 0 0 0 0 0 0
0 0 0 0 0 0 0 0 0 0 0 0 0 0 0 0 0 0 0 0 0 0 0 0 0 0 0 0 0 0 0 0 0 0 0 0 0 0 0 0 0 0 0
0 0 0 0 0 0 0 0 0 0 0 0 0 0 0 0 0 0 0 0 0 0 0 0 0 0 0 0 0 0 0 0 0 0 0 0 0 0 0 0 0 0 0
0 0 0 0 0 0 0 0 0 0 0 0 0 0 0 0 0 0 0 0 0 0 0 0 0 0 0 0 0 0 0 0 0 1 0 0 0 0 0 0 0 0 0
CIN
-0 -0 -0 -0 -0 -0 -0 -0 -0 -0 -0 -0 -0 -0 -0 -0 -0 -0 -0 -0 -0 -0 -0 -4 -21 -0 -0 -0 -1 -1 -14 -9 -35 -59 -59 -34 -0 -0 -0 -0 -0 -0 -0
-0 -0 -0 -0 -0 -0 -0 -0 -0 -0 -0 -0 -0 -0 -0 -0 -0 -0 -0 -0 -0 -0 -0 -0 -0 -0 -2 -1 -0 -0 -1 -6 -0 -23 -2 -0 -0 -0 -0 -0 -0 -0 -0
-0 -0 -0 -0 -0 -0 -0 -0 -0 -0 -0 -0 -0 -0 -0 -0 -0 -0 -0 -0 -0 -0 -0 -0 -0 -0 -0 -0 -29 -1 -1 -6 -0 -1 -1 -1 -0 -0 -0 -0 -0 -0 -0
-0 -0 -0 -0 -0 -0 -0 -0 -0 -0 -0 -0 -0 -0 -0 -0 -0 -0 -0 -0 -0 -0 -0 -0 -0 -0 -0 -0 -0 -0 -0 -0 -5 -3 -12 -3 -13 -0 -0 -0 -0 -0 -0
-0 -0 -0 -0 -0 -0 -0 -0 -0 -0 -0 -0 -0 -0 -0 -0 -0 -0 -0 -0 -0 -0 -0 -0 -0 -0 -0 -0 -0 -0 -0 -0 -0 -4 -0 -0 -0 -0 -0 -0 -0 -0 -0
-0 -0 -0 -0 -0 -0 -0 -0 -0 -0 -0 -0 -0 -0 -0 -0 -0 -0 -0 -0 -0 -0 -0 -0 -0 -0 -0 -0 -0 -0 -0 -0 -0 -0 -0 -0 -0 -0 -0 -0 -0 -0 -0
-0 -0 -0 -0 -0 -0 -0 -0 -0 -0 -0 -0 -0 -0 -0 -0 -0 -0 -0 -0 -0 -0 -0 -1 -1 -1 -1 -0 -1 -0 -0 -0 -0 -0 -0 -0 -0 -0 -0 -0 -0 -0 -0
-0 -0 -0 -0 -0 -0 -0 -0 -0 -0 -0 -0 -0 -0 -0 -0 -0 -0 -0 -0 -0 -0 -0 -0 -7 -0 -0 -0 -0 -0 -0 -0 -0 -0 -0 -0 -0 -0 -0 -0 -0 -0 -0
-0 -0 -0 -0 -0 -0 -0 -0 -0 -0 -0 -0 -0 -0 -0 -0 -0 -0 -0 -0 -0 -0 -0 -0 -0 -0 -0 -0 -0 -0 -0 -0 -0 -0 -0 -0 -0 -0 -0 -0 -0 -0 -0
-0 -0 -0 -0 -0 -0 -0 -0 -0 -0 -0 -0 -0 -0 -0 -0 -0 -0 -1 -0 -0 -0 -0 -0 -0 -0 -0 -0 -0 -0 -0 -0 -0 -0 -0 -0 -0 -0 -0 -0 -0 -0 -0
-0 -0 -0 -0 -0 -0 -0 -0 -0 -0 -0 -0 -0 -0 -0 -0 -0 -0 -0 -1 -0 -0 -0 -0 -0 -0 -0 -0 -0 -0 -0 -0 -0 -0 -0 -0 -0 -0 -0 -0 -0 -0 -0
-0 -0 -0 -0 -0 -0 -0 -0 -0 -0 -0 -0 -0 -0 -0 -0 -0 -0 -0 -1 -0 -0 -0 -0 -0 -0 -0 -0 -0 -0 -0 -0 -0 -0 -0 -0 -0 -0 -0 -0 -0 -0 -0
-0 -0 -0 -0 -0 -0 -0 -0 -0 -0 -0 -0 -0 -0 -0 -0 -0 -0 -0 -0 -0 -0 -0 -0 -0 -0 -0 -0 -0 -0 -0 -0 -0 -0 -0 -0 -0 -0 -0 -0 -0 -0 -0
-0 -0 -0 -0 -0 -0 -0 -0 -0 -0 -0 -0 -0 -0 -0 -0 -0 -0 -0 -0 -0 -0 -0 -0 -0 -0 -0 -0 -0 -0 -0 -0 -0 -0 -0 -0 -0 -0 -0 -0 -0 -0 -0
-0 -0 -0 -0 -0 -0 -0 -0 -0 -0 -1 -0 -0 -0 -0 -0 -0 -1 -1 -1 -0 -0 -0 -0 -0 -0 -0 -0 -0 -0 -0 -0 -0 -0 -0 -0 -0 -0 -0 -0 -0 -0 -0
-0 -0 -0 -0 -0 -0 -0 -0 -0 -0 -0 -1 -1 -1 -0 -1 -2 -1 -0 -0 -0 -0 -0 -0 -0 -0 -0 -0 -0 -0 -0 -0 -0 -0 -0 -0 -0 -0 -0 -0 -0 -0 -0
-0 -0 -0 -0 -0 -0 -0 -0 -0 -0 -0 -0 -0 -0 -0 -0 -1 -1 -0 -0 -0 -0 -0 -0 -0 -0 -0 -0 -0 -0 -0 -0 -0 -0 -0 -0 -0 -0 -0 -0 -0 -0 -0
-0 -0 -0 -0 -0 -0 -0 -0 -0 -0 -0 -0 -0 -0 -0 -0 -0 -0 -0 -0 -0 -0 -0 -0 -0 -0 -0 -0 -0 -0 -0 -0 -0 -0 -0 -0 -0 -0 -0 -0 -0 -0 -0
-0 -0 -0 -0 -0 -0 -0 -0 -0 -0 -0 -0 -0 -0 -0 -0 -0 -0 -0 -0 -0 -0 -0 -0 -0 -0 -0 -0 -0 -0 -0 -0 -0 -0 -0 -0 -0 -0 -0 -0 -0 -0 -0
-0 -0 -0 -0 -0 -0 -0 -0 -0 -0 -0 -0 -0 -0 -0 -0 -0 -0 -0 -0 -0 -0 -0 -0 -0 -0 -0 -0 -0 -0 -0 -0 -0 -0 -0 -0 -0 -0 -0 -0 -0 -0 -0
-0 -0 -0 -0 -0 -0 -0 -0 -0 -0 -0 -0 -0 -0 -0 -0 -0 -0 -0 -0 -0 -0 -0 -0 -0 -0 -0 -0 -0 -0 -0 -0 -0 -0 -0 -0 -0 -0 -0 -0 -0 -0 -0
-0 -0 -0 -0 -0 -0 -0 -0 -0 -0 -0 -0 -0 -0 -0 -0 -0 -0 -0 -0 -0 -0 -0 -0 -0 -0 -0 -0 -0 -0 -0 -0 -0 -0 -0 -0 -0 -0 -0 -0 -0 -0 -0
-0 -0 -0 -0 -0 -0 -0 -0 -0 -0 -0 -0 -0 -0 -0 -0 -0 -0 -0 -0 -0 -0 -0 -0 -0 -0 -0 -0 -0 -0 -0 -0 -0 -0 -0 -0 -0 -0 -0 -0 -0 -0 -0
-0 -0 -0 -0 -0 -0 -0 -0 -0 -0 -0 -0 -0 -0 -0 -0 -0 -0 -0 -0 -0 -0 -0 -0 -0 -0 -0 -0 -0 -0 -0 -0 -0 -0 -0 -0 -0 -0 -0 -0 -0 -0 -0
-0 -0 -0 -0 -0 -0 -0 -0 -0 -0 -0 -0 -0 -0 -0 -0 -0 -0 -0 -0 -0 -0 -0 -0 -0 -0 -0 -0 -0 -0 -0 -0 -0 -0 -0 -0 -0 -0 -0 -0 -0 -0 -0
-0 -0 -0 -0 -0 -0 -0 -0 -0 -0 -0 -0 -0 -0 -0 -0 -0 -0 -0 -0 -0 -0 -0 -0 -0 -0 -0 -0 -0 -0 -0 -0 -0 -0 -0 -0 -0 -0 -0 -0 -0 -0 -0
Wind_Speed
27 28 28 29 31 32 33 35 36 37 39 40 40 41 41 41 41 41 42 42 43 43 41 41 41 39 37 36 36 36 35 33 38 42 40 37 34 32 32 33 33 33 33
28 29 30 32 33 34 35 36 38 39 39 40 41 42 42 42 43 43 44 44 43 46 46 46 46 43 45 41 38 39 40 36 40 47 42 38 36 37 35 37 33 33 34
30 31 33 34 35 36 37 37 38 39 40 40 41 43 44 43 44 43 43 44 46 46 46 47 47 47 48 46 47 42 38 38 40 42 47 38 35 35 36 35 33 36 32
32 34 35 36 37 37 37 37 39 39 40 41 42 43 44 44 44 44 46 48 48 48 48 48 48 48 48 47 49 49 47 46 43 39 45 42 37 34 32 36 36 33 34
33 34 35 36 36 36 37 38 39 39 40 42 43 44 45 44 44 48 49 50 51 51 50 50 48 48 50 49 48 47 48 47 45 45 45 38 34 30 32 30 35 31 31
33 34 35 35 36 37 37 38 39 41 42 43 44 45 46 46 48 50 51 52 52 52 53 52 51 51 49 49 49 49 45 46 47 45 46 44 41 38 34 34 34 30 34
32 33 34 36 36 37 38 38 40 42 43 44 45 47 48 49 51 54 55 54 55 55 55 55 56 52 53 53 53 51 50 46 44 44 46 45 44 40 38 38 34 33 34
32 33 34 35 37 38 39 40 41 42 44 46 47 49 52 52 55 58 60 59 59 59 58 58 59 59 55 55 55 55 52 49 46 45 46 47 42 39 36 35 34 32 29
32 33 35 36 37 39 40 42 43 45 46 48 50 53 55 56 58 60 61 61 63 63 61 60 59 60 58 55 55 58 57 53 46 47 47 46 42 40 36 33 33 31 34
32 33 34 35 37 39 41 43 44 45 47 48 51 53 54 57 59 61 62 62 65 64 64 62 60 59 59 56 56 55 57 53 49 48 46 44 42 39 36 35 34 37 34
31 33 34 36 37 39 41 42 44 45 46 49 51 53 53 56 59 62 63 61 63 66 66 65 62 61 59 57 54 54 53 51 48 45 45 44 41 39 36 34 33 34 34
31 32 34 37 38 40 42 43 44 46 48 51 53 54 53 55 58 61 61 61 61 61 62 61 59 60 60 58 55 52 50 47 44 42 42 43 41 39 34 33 33 33 32
32 34 35 37 39 40 42 44 45 47 49 51 53 56 57 56 57 60 58 59 58 55 53 52 50 48 45 41 40 40 39 39 40 40 40 40 38 34 31 30 28 28 28
32 34 36 38 40 41 42 43 45 47 49 51 52 54 54 54 54 55 53 53 53 50 48 45 43 41 38 36 35 35 33 33 33 35 36 35 32 30 30 29 30 30 30
33 35 37 38 40 42 42 42 43 43 44 47 47 49 51 51 51 52 51 50 50 46 44 43 41 39 36 35 34 33 31 31 30 31 30 30 29 28 27 24 24 27 27
34 36 38 39 40 40 41 41 39 40 40 41 43 43 44 43 46 48 47 46 47 45 42 42 40 38 36 35 34 33 31 30 29 27 26 25 24 24 24 22 21 22 22
34 36 37 39 39 40 40 41 43 40 38 39 41 41 43 42 44 45 45 43 44 43 41 40 38 37 36 34 33 32 32 30 29 26 25 25 23 22 22 22 21 20 21
34 35 37 37 37 38 38 39 40 41 41 41 39 40 41 41 42 42 43 40 41 42 40 39 38 37 36 35 34 33 32 31 29 27 26 25 24 23 21 22 22 21 20
34 35 35 35 35 35 37 38 38 39 39 39 39 38 37 40 39 40 40 40 40 40 40 39 38 37 36 34 34 33 32 31 30 29 28 27 26 24 23 22 21 21 20
32 32 33 33 35 36 37 37 38 38 38 38 38 38 36 39 39 39 39 39 39 39 39 39 38 37 37 36 35 34 33 32 31 30 29 28 27 25 24 24 23 22 21
31 31 32 33 35 35 36 36 36 36 36 36 35 35 37 37 38 38 39 39 39 39 39 39 38 38 37 37 36 35 34 33 32 31 30 30 29 27 26 25 24 23 22
29 31 32 33 33 34 35 34 34 35 34 34 34 34 36 36 37 38 38 39 39 38 38 38 38 38 38 37 37 36 35 34 33 33 32 31 30 29 28 27 27 26 25
29 30 31 31 32 32 33 33 34 33 33 33 34 35 36 37 38 38 39 39 39 39 39 38 39 38 38 38 37 36 36 36 35 34 33 32 31 31 30 30 29 29 28
29 29 30 30 31 31 32 32 31 31 32 33 35 35 36 37 38 39 38 39 39 39 39 39 39 39 40 39 38 37 36 36 35 34 34 32 33 32 31 30 29 29 29
27 27 28 28 29 30 30 30 30 30 32 34 35 36 36 37 38 38 38 39 39 39 39 39 39 39 40 41 40 38 37 37 36 36 33 33 34 32 32 31 31 31 30
26 25 26 26 27 27 28 28 27 28 31 33 34 35 36 38 38 38 38 38 38 39 40 39 39 40 41 40 39 38 38 38 38 34 32 34 34 34 32 32 32 31 31
Wind_Direction
337 335 337 338 337 334 331 327 326 326 325 323 323 322 321 321 321 319 315 313 311 309 309 310 307 305 303 301 298 295 292 292 289 295 294 294 294 291 291 287 286 286 287
333 334 333 334 334 333 330 329 327 326 326 325 324 322 321 320 319 318 316 314 312 309 307 305 303 304 305 305 301 297 295 293 292 294 295 294 289 292 289 288 286 285 286
331 332 331 331 331 330 329 329 328 327 327 326 326 325 323 322 321 321 319 316 313 310 309 307 305 304 301 300 302 303 299 297 293 293 294 293 290 292 290 292 290 290 290
329 328 328 329 329 329 330 332 330 330 330 330 329 327 326 325 323 322 319 316 313 312 310 309 306 305 303 302 299 298 299 300 298 295 294 292 298 297 295 291 295 291 290
326 330 328 328 330 332 333 331 332 332 331 331 331 331 330 328 328 323 320 318 315 312 311 309 308 306 303 302 301 299 297 297 296 297 297 299 296 292 295 297 293 300 295
325 326 332 332 331 330 332 332 331 331 332 332 332 331 330 329 325 323 321 318 316 314 312 311 309 307 305 303 301 299 297 294 293 293 292 291 291 293 295 295 292 295 296
330 331 332 332 334 335 335 336 335 335 334 333 333 332 329 327 324 321 319 317 314 313 311 310 309 308 305 302 300 298 295 293 288 289 287 286 288 289 290 289 287 289 292
332 333 335 335 334 335 335 335 334 334 334 333 331 329 327 325 323 321 318 315 311 309 308 307 306 305 304 302 298 295 294 292 289 287 284 284 284 286 285 287 288 288 291
333 333 333 333 333 333 333 332 333 332 331 332 332 331 328 327 326 325 322 319 313 309 307 306 305 304 302 301 299 293 291 290 290 287 283 281 282 281 280 281 281 282 284
334 333 334 335 335 334 334 333 334 333 331 332 332 332 331 328 328 326 325 321 316 312 309 307 306 303 301 299 296 295 289 289 290 287 284 281 279 278 276 273 273 274 277
333 334 336 337 336 336 335 335 335 336 335 335 335 334 333 332 329 328 326 323 319 315 312 308 306 304 300 298 295 290 288 289 287 286 283 281 279 278 275 273 271 270 271
335 336 337 337 338 338 337 337 337 336 336 336 336 336 335 335 334 332 331 329 326 321 317 315 312 308 301 297 294 290 288 287 285 284 282 280 278 277 277 274 272 270 271
336 337 338 339 339 339 338 338 338 338 338 336 336 335 334 335 335 336 335 334 333 330 326 323 323 320 317 313 309 303 296 288 283 282 282 280 280 281 278 276 274 272 275
337 338 339 339 339 340 340 340 339 339 338 338 337 338 338 339 340 340 340 340 340 339 337 334 332 331 328 322 317 313 308 301 292 287 285 284 284 282 280 279 275 272 273
338 339 339 340 340 340 341 341 341 342 343 342 342 344 342 341 344 343 343 344 344 343 343 342 339 336 333 329 325 323 320 315 305 298 293 290 288 285 283 283 281 278 274
338 339 339 339 340 341 341 343 347 347 347 348 348 350 350 350 347 346 347 350 349 350 348 345 341 338 336 333 331 327 328 324 319 313 307 302 299 296 291 289 287 281 278
338 338 339 339 340 341 342 341 340 346 349 349 350 351 353 350 347 346 347 351 352 354 350 345 342 339 337 333 332 331 328 329 325 324 320 315 309 308 304 299 293 288 283
339 340 340 341 342 342 343 341 342 342 343 345 350 353 355 353 349 348 348 352 349 350 350 346 343 339 337 335 332 330 330 330 330 327 325 323 318 314 312 308 303 295 289
340 341 342 343 344 344 344 343 343 344 344 345 348 353 357 354 352 352 352 353 351 349 347 346 344 339 335 333 332 331 331 331 330 328 328 325 322 317 313 314 310 304 296
343 344 344 344 343 343 343 344 344 345 345 346 348 349 352 350 349 350 351 351 351 351 349 347 343 341 337 333 330 331 330 330 329 329 327 325 325 322 313 311 310 305 300
343 343 345 344 343 343 343 344 344 345 345 346 348 350 347 348 346 345 345 347 347 346 346 345 343 340 338 335 333 330 328 328 326 325 324 323 321 318 316 311 309 308 304
344 343 345 345 344 343 344 344 344 344 345 346 346 346 345 346 346 344 343 343 343 344 343 341 339 339 337 335 333 330 328 326 324 323 321 320 320 319 315 313 308 304 302
344 344 345 346 346 345 345 345 344 346 345 345 342 341 343 343 342 342 343 343 342 341 340 340 338 336 336 333 331 330 327 324 322 321 320 320 318 318 314 310 308 304 301
344 345 345 345 345 345 345 345 346 346 345 341 338 338 340 341 341 341 342 342 342 341 340 339 338 335 332 332 331 329 325 322 321 319 318 318 317 316 314 311 309 306 303
345 346 346 347 346 346 347 348 348 347 343 338 336 337 338 338 339 341 343 342 342 341 340 339 337 334 331 328 327 326 324 320 318 317 318 317 315 314 312 310 308 306 304
344 345 346 347 348 348 349 349 350 349 344 340 339 338 338 338 339 341 342 342 342 342 340 340 338 335 332 331 329 326 323 320 317 319 318 315 313 312 311 309 308 307 305